GW6351 Weather Reports


time (UTC)temp
F
wind
direction
speed
knots
gust
knots
rain 1hr
in
rain 24hr
in
rain mn
in
humidity
%
barometer
mb
20260505065009 55 252 5.2 7.8 0.00 0.00 0.00 49 1009.5
20260505064541 55 250 4.3 8.7 0.00 0.00 0.00 49 1009.6
20260505064010 55 259 4.3 8.7 0.00 0.00 0.00 48 1009.6
20260505063510 55 281 5.2 9.6 0.00 0.00 0.00 47 1009.7
20260505063035 55 250 5.2 9.6 0.00 0.00 0.00 47 1009.6
20260505062511 55 256 5.2 9.6 0.00 0.00 0.00 47 1009.6
20260505062012 55 227 4.3 10.4 0.00 0.00 0.00 48 1009.6
20260505061537 55 210 6.1 10.4 0.00 0.00 0.00 47 1009.6
20260505061013 55 255 5.2 13.0 0.00 0.00 0.00 46 1009.6
20260505060513 55 266 6.1 13.0 0.00 0.00 0.00 47 1009.6
20260505060047 55 268 6.1 9.6 0.00 0.00 0.00 47 1009.7
20260505055518 55 247 5.2 9.6 0.00 0.00 0.00 47 1009.6
20260505055012 56 228 7.0 12.2 0.00 0.00 0.00 47 1009.7
20260505054538 56 259 7.0 12.2 0.00 0.00 0.00 45 1009.5
20260505054013 56 246 6.1 11.3 0.00 0.00 0.00 46 1009.4
20260505053510 56 205 7.0 12.2 0.00 0.00 0.00 45 1009.5
20260505053041 56 268 7.0 12.2 0.00 0.00 0.00 44 1009.4
20260505052511 56 271 7.0 12.2 0.00 0.00 0.00 44 1009.4
20260505052011 56 249 7.0 12.2 0.00 0.00 0.00 44 1009.3
20260505051555 56 202 4.3 12.2 0.00 0.00 0.00 44 1009.5
20260505051013 56 257 5.2 13.0 0.00 0.00 0.00 43 1009.3
20260505050512 56 257 6.1 13.0 0.00 0.00 0.00 43 1009.3
20260505041543 57 263 7.8 15.6 0.00 0.00 0.00 40 1009.1
20260505041015 57 246 6.1 12.2 0.00 0.00 0.00 42 1009.1
20260505040513 57 288 6.1 12.2 0.00 0.00 0.00 43 1009.0
20260505040042 58 256 6.1 11.3 0.00 0.00 0.00 40 1009.0
20260505035510 58 272 5.2 14.8 0.00 0.00 0.00 42 1008.9
20260505035011 58 252 7.8 14.8 0.00 0.00 0.00 40 1008.7
20260505034546 58 285 7.8 13.0 0.00 0.00 0.00 38 1008.7
20260505034011 58 256 8.7 13.0 0.00 0.00 0.00 41 1008.6
20260505033512 58 304 6.1 10.4 0.00 0.00 0.00 42 1008.8
20260505033038 58 263 5.2 12.2 0.00 0.00 0.00 39 1008.8
20260505032513 58 275 7.8 12.2 0.00 0.00 0.00 39 1008.6
20260505032010 58 264 7.0 12.2 0.00 0.00 0.00 43 1008.6
20260505031551 59 267 5.2 10.4 0.00 0.00 0.00 38 1008.7
20260505031013 59 278 7.0 11.3 0.00 0.00 0.00 35 1008.5
20260505030511 60 238 6.1 9.6 0.00 0.00 0.00 36 1008.6
20260505030045 60 248 6.1 10.4 0.00 0.00 0.00 33 1008.8
20260505025516 60 280 6.1 11.3 0.00 0.00 0.00 33 1008.6
20260505025012 60 265 7.0 11.3 0.00 0.00 0.00 34 1008.6
20260505024540 61 252 6.1 11.3 0.00 0.00 0.00 33 1008.5
20260505024010 61 255 8.7 11.3 0.00 0.00 0.00 33 1008.5
20260505023511 61 256 7.8 13.9 0.00 0.00 0.00 32 1008.4
20260505023053 61 269 7.8 13.9 0.00 0.00 0.00 33 1008.4
20260505022515 62 243 7.8 13.0 0.00 0.00 0.00 34 1008.6
20260505022013 62 286 7.8 14.8 0.00 0.00 0.00 32 1008.4
20260505021544 62 259 7.8 13.9 0.00 0.00 0.00 31 1008.6
20260505021011 62 267 7.8 13.9 0.00 0.00 0.00 31 1008.6
20260505020513 62 252 9.6 13.9 0.00 0.00 0.00 30 1008.4
20260505020045 63 259 8.7 13.9 0.00 0.00 0.00 30 1008.4
20260505015511 63 254 8.7 13.9 0.00 0.00 0.00 31 1008.6
20260505015012 63 264 7.8 13.9 0.00 0.00 0.00 30 1008.4
20260505014545 63 248 7.8 14.8 0.00 0.00 0.00 30 1008.5
20260505014015 63 264 8.7 14.8 0.00 0.00 0.00 32 1008.6
20260505013513 63 280 8.7 12.2 0.00 0.00 0.00 31 1008.4
20260505013059 62 238 4.3 7.8 0.00 0.00 0.00 34 1008.6
20260505012512 62 244 4.3 8.7 0.00 0.00 0.00 33 1008.7
20260505012011 62 271 6.1 9.6 0.00 0.00 0.00 32 1008.8
20260505011540 62 261 6.1 9.6 0.00 0.00 0.00 32 1008.8
20260505011010 62 269 6.1 8.7 0.00 0.00 0.00 33 1008.8
20260505010517 62 270 4.3 8.7 0.00 0.00 0.00 33 1008.9
20260505005514 63 262 2.6 5.2 0.00 0.00 0.00 34 1008.9
20260505005014 63 274 2.6 5.2 0.00 0.00 0.00 34 1008.9
20260505004538 63 263 2.6 5.2 0.00 0.00 0.00 34 1008.9
20260505004013 63 276 2.6 6.1 0.00 0.00 0.00 32 1008.7
20260505003516 64 254 3.5 6.1 0.00 0.00 0.00 35 1008.7
20260505003037 64 260 2.6 7.0 0.00 0.00 0.00 33 1008.8
20260505002515 64 253 2.6 8.7 0.00 0.00 0.00 35 1008.8
20260505002015 64 263 6.1 11.3 0.00 0.00 0.00 32 1008.8
20260505001546 65 280 6.1 11.3 0.00 0.00 0.00 32 1008.8
20260505001012 65 269 3.5 7.8 0.00 0.00 0.00 32 1008.9
20260505000513 65 286 3.5 6.1 0.00 0.00 0.00 33 1008.9
20260505000054 66 275 3.5 6.1 0.00 0.00 0.00 32 1008.8
20260504235513 66 270 3.5 6.1 0.00 0.00 0.00 32 1008.9
20260504235011 65 267 2.6 6.1 0.00 0.00 0.00 33 1009.0
20260504234551 66 292 2.6 6.1 0.00 0.00 0.00 35 1008.9
20260504234013 66 254 1.7 4.3 0.00 0.00 0.00 33 1008.9
20260504233514 66 333 2.6 4.3 0.00 0.00 0.00 33 1008.8
20260504233054 66 286 0.9 3.5 0.00 0.00 0.00 35 1008.8
20260504232514 66 280 1.7 3.5 0.00 0.00 0.00 34 1009.0
20260504232010 67 306 0.9 2.6 0.00 0.00 0.00 33 1008.9
20260504231538 67 340 0.0 2.6 0.00 0.00 0.00 33 1008.9
20260504231013 67 40 0.9 5.2 0.00 0.00 0.00 32 1008.9
20260504230513 67 348 1.7 5.2 0.00 0.00 0.00 33 1008.9
20260504230035 67 342 1.7 4.3 0.00 0.00 0.00 35 1008.9
20260504225514 66 42 1.7 4.3 0.00 0.00 0.00 33 1008.9
20260504225017 66 53 2.6 4.3 0.00 0.00 0.00 33 1009.0
20260504224543 66 360 0.9 4.3 0.00 0.00 0.00 33 1009.0
20260504224011 66 17 1.7 4.3 0.00 0.00 0.00 34 1008.9
20260504223511 67 352 0.9 3.5 0.00 0.00 0.00 33 1009.1
20260504223052 67 355 1.7 3.5 0.00 0.00 0.00 32 1009.1
20260504222513 66 355 0.0 4.3 0.00 0.00 0.00 32 1009.2
20260504222016 66 342 1.7 4.3 0.00 0.00 0.00 33 1009.2
20260504221548 67 309 0.9 4.3 0.00 0.00 0.00 32 1009.3
20260504221014 67 310 0.9 4.3 0.00 0.00 0.00 31 1009.3
20260504220514 68 302 1.7 5.2 0.00 0.00 0.00 31 1009.3
20260504220050 68 38 2.6 5.2 0.00 0.00 0.00 34 1009.4
20260504215514 66 61 1.7 5.2 0.00 0.00 0.00 34 1009.4
20260504215014 65 15 1.7 4.3 0.00 0.00 0.00 34 1009.5
20260504214546 65 26 1.7 4.3 0.00 0.00 0.00 35 1009.5
20260504214017 65 72 0.9 3.5 0.00 0.00 0.00 35 1009.5
20260504213511 65 40 2.6 7.0 0.00 0.00 0.00 34 1009.5
20260504213051 65 319 3.5 7.0 0.00 0.00 0.00 32 1009.7
20260504212513 66 48 1.7 8.7 0.00 0.00 0.00 32 1009.8
20260504212013 67 319 2.6 8.7 0.00 0.00 0.00 32 1009.7
20260504211543 68 352 1.7 8.7 0.00 0.00 0.00 32 1009.8
20260504211014 69 321 1.7 6.1 0.00 0.00 0.00 32 1009.6
20260504210514 68 267 2.6 7.0 0.00 0.00 0.00 33 1009.7
20260504210051 68 136 4.3 7.0 0.00 0.00 0.00 28 1009.7
20260504205514 69 199 1.7 5.2 0.00 0.00 0.00 29 1009.8
20260504205011 69 178 1.7 6.1 0.00 0.00 0.00 27 1010.0
20260504204545 69 233 1.7 8.7 0.00 0.00 0.00 30 1010.1
20260504204013 69 340 2.6 8.7 0.00 0.00 0.00 32 1010.2
20260504203518 68 331 2.6 7.8 0.00 0.00 0.00 33 1010.1
20260504203053 68 170 2.6 9.6 0.00 0.00 0.00 31 1010.0
20260504202515 69 100 4.3 9.6 0.00 0.00 0.00 33 1010.0
20260504202014 68 136 3.5 7.8 0.00 0.00 0.00 33 1009.9
20260504201600 68 34 0.9 8.7 0.00 0.00 0.00 31 1010.0
20260504201011 68 51 3.5 8.7 0.00 0.00 0.00 34 1009.8
20260504200513 67 338 1.7 7.8 0.00 0.00 0.00 34 1010.0
20260504200047 67 28 3.5 7.8 0.00 0.00 0.00 33 1010.0
20260504195514 67 192 1.7 7.8 0.00 0.00 0.00 33 1010.2
20260504195014 67 355 4.3 7.8 0.00 0.00 0.00 31 1010.0
20260504194550 67 63 2.6 8.7 0.00 0.00 0.00 34 1010.2
20260504194015 67 317 2.6 8.7 0.00 0.00 0.00 32 1010.0
20260504193514 69 9 3.5 7.8 0.00 0.00 0.00 32 1010.1
20260504193047 69 34 2.6 7.8 0.00 0.00 0.00 32 1010.0
20260504192515 68 29 1.7 8.7 0.00 0.00 0.00 31 1010.2
20260504192014 67 63 3.5 8.7 0.00 0.00 0.00 32 1010.2
20260504191557 67 90 3.5 6.1 0.00 0.00 0.00 31 1010.2
20260504191015 67 355 2.6 5.2 0.00 0.00 0.00 32 1010.2
20260504190515 67 147 0.9 3.5 0.00 0.00 0.00 32 1010.6
20260504190113 66 262 0.9 3.5 0.00 0.00 0.00 28 1010.7
20260504185515 66 304 0.9 6.1 0.00 0.00 0.00 29 1010.6
20260504185018 66 232 1.7 6.1 0.00 0.00 0.00 25 1010.5
20260504184603 66 262 3.5 7.0 0.00 0.00 0.00 26 1010.7
20260504184014 64 236 2.6 7.0 0.00 0.00 0.00 27 1010.7
20260504183514 64 178 1.7 7.0 0.00 0.00 0.00 26 1010.8
20260504183046 64 250 2.6 7.0 0.00 0.00 0.00 25 1010.5
20260504182515 64 259 2.6 7.0 0.00 0.00 0.00 22 1010.7
20260504182013 64 242 2.6 7.0 0.00 0.00 0.00 27 1010.6
20260504181551 64 207 2.6 7.0 0.00 0.00 0.00 27 1010.5
20260504181018 64 253 2.6 6.1 0.00 0.00 0.00 29 1010.6
20260504180514 63 231 1.7 6.1 0.00 0.00 0.00 29 1010.5
20260504180045 63 223 1.7 5.2 0.00 0.00 0.00 30 1010.4
20260504175514 63 273 1.7 5.2 0.00 0.00 0.00 30 1010.6
20260504175015 63 279 1.7 6.1 0.00 0.00 0.00 31 1010.4
20260504174546 63 267 2.6 6.1 0.00 0.00 0.00 31 1010.4
20260504174015 63 250 2.6 4.3 0.00 0.00 0.00 32 1010.4
20260504173512 63 317 1.7 3.5 0.00 0.00 0.00 31 1010.4
20260504173054 63 250 1.7 3.5 0.00 0.00 0.00 33 1010.3
20260504172514 62 319 1.7 3.5 0.00 0.00 0.00 33 1010.3
20260504172014 62 249 1.7 6.1 0.00 0.00 0.00 32 1010.4
20260504171554 62 261 2.6 6.1 0.00 0.00 0.00 32 1010.4
20260504171019 62 300 1.7 5.2 0.00 0.00 0.00 31 1010.4
20260504170519 62 269 2.6 5.2 0.00 0.00 0.00 32 1010.3
20260504151015 59 258 0.9 3.5 0.00 0.00 0.00 30 1010.5
20260504150515 59 249 1.7 3.5 0.00 0.00 0.00 29 1010.5
20260504141014 58 238 1.7 4.3 0.00 0.00 0.00 26 1010.0
20260504140513 57 242 1.7 5.2 0.00 0.00 0.00 26 1010.0
20260504140105 57 269 1.7 5.2 0.00 0.00 0.00 26 1010.0
20260504130517 56 192 0.9 2.6 0.00 0.00 0.00 26 1009.5
20260504110513 58 196 1.7 5.2 0.00 0.00 0.00 26 1009.7
20260504100511 58 182 0.9 2.6 0.00 0.00 0.00 36 1009.9
20260504081535 58 228 0.9 4.3 0.00 0.00 0.00 43 1010.5
20260504081011 58 225 1.7 4.3 0.00 0.00 0.00 42 1010.3
20260504080510 58 214 1.7 4.3 0.00 0.00 0.00 42 1010.3